www.pogodaiklimat.ru

Погода и климат >> Архив погоды >> Молдова >> Кишинев


АРХИВ ПОГОДЫ в Кишиневе

Время (UTC), дата Ветер
(напр.,м/с)
 
Видим.   Явления Облачность Т
(С)
Тd
(С)
f
(%)
Тe
(С)
Тes
(С)
Комфортность P
(гПа)
Po
(гПа)
Тmin
(С)
Tmax
(С)
R
(мм)
R24
(мм)
S
(см)
18 17.05 С 1 20 км ясно +15.6 -1.9 30 +17 +17 по сезону 1022.6 1002.3 +20.0
21 17.05 С 2 20 км ясно +13.5 -1.7 35 +13 +13 прохладно 1023.4 1003.0
00 18.05 штиль 0 20 км ясно +11.6 -0.9 42 +12 +12 по сезону 1023.0 1002.4
03 18.05 штиль 0 20 км ясно +11.6 -0.9 42 +12 +12 прохладно 1023.0 1002.4
06 18.05 штиль 0 20 км 3/0
[Ci fib]
+10.1 -0.7 47 +10 +19 холодно 1022.2 1001.5
09 18.05 СЗ 3 20 км 3/0
[Ci fib]
+18.2 +0.8 31 +18 +32 опасность
простуды
1021.0 1000.9
12 18.05 СЗ 2 20 км 8/0
[Ci fib]
+20.1 -0.5 25 +21 +33 комфорт 1019.4 999.5
15 18.05 СЗ 2 20 км 9/0
[Ci sp]
+20.6 -0.1 25 +21 +25 комфорт 1017.8 998.0
18 18.05 С 1 20 км 8/0
[Ac trans Ci fib]
+17.9 -1.4 27 +19 +19 тепло 1017.7 997.7 +21.1
21 18.05 штиль 0 20 км 5/0
[Ci fib]
+15.1 +0.1 36 +15 +15 по сезону 1017.9 997.7
00 19.05 С 1 20 км 4/0
[Ci fib]
+13.6 +0.9 42 +14 +14 по сезону 1017.3 997.0
03 19.05 СВ 2 20 км 1/0
[Ci fib]
+11.1 +2.7 56 +10 +10 прохладно 1017.6 997.1
06 19.05 В 2 20 км ясно +14.6 +4.9 52 +14 +22 по сезону 1018.2 998.0 +10.6
09 19.05 В 1 20 км 3/3 600 м
[Cu hum]
+19.5 +1.9 31 +21 +35 комфорт 1017.6 997.7
12 19.05 В 2 20 км 3/3 600 м
[Cu hum]
+21.6 +1.3 26 +21 +32 комфорт 1016.2 996.5
15 19.05 В 1 20 км 5/4 600 м
[Cu hum Ci fib]
+21.6 +1.8 27 +21 +24 комфорт 1014.9 995.2
18 19.05 Ю 1 20 км 3/0
[Ci fib]
+18.9 +0.5 29 +20 +20 тепло 1014.4 994.5 +22.6
21 19.05 З 2 20 км ясно +16.5 +1.4 36 +17 +17 по сезону 1014.0 994.0
00 20.05 З 1 20 км 3/0
[Ci fib]
+13.9 +1.2 42 +15 +15 по сезону 1012.7 992.5
03 20.05 З 4 20 км 3/0
[Ci fib]
+13.9 +2.5 46 +13 +13 прохладно 1010.8 990.7
06 20.05 СЗ 3 50 км 3/0
[Ac lent Ci fib]
+18.4 +4.2 39 +19 +24 тепло 1010.1 990.3 +12.5
09 20.05 С 2 50 км 3/1 600 м
[Cu hum Cc]
+21.1 +5.1 35 +22 +36 комфорт 1009.3 989.7
12 20.05 С 3 20 км {ливн. осадки} 9/9 600 м
[Cu med, cong]
+22.5 +4.5 31 +23 +24 комфорт 1007.8 988.3
15 20.05 В 2 20 км гроза без осадков {ливн. осадки} 8/8 600 м
[Cb calv]
+19.4 +6.2 42 +21 +21 комфорт 1008.0 988.3
18 20.05 ЮВ 2 20 км слабый ливневой дождь {гроза} 10/10 600 м
[Cb calv]
+12.9 +7.4 69 +12 +12 очень
холодно
1009.7 989.5 +23.1 1
21 20.05 С 3 20 км {ливн. осадки} ясно +10.8 +7.3 79 +9 +9 очень
холодно
1009.8 989.5
00 21.05 С 3 20 км {ливн. осадки} 8/0
[Ac trans]
+10.3 +6.4 77 +8 +8 холодно 1009.5 989.1
03 21.05 СЗ 3 20 км 6/0
[Ac trans]
+9.0 +5.7 80 +7 +7 очень
холодно
1010.0 989.5
06 21.05 С 4 20 км 8/5 600 м
[Cu Sc Ac lent]
+12.9 +6.7 66 +11 +13 холодно 1010.5 990.3 +8.9 0.9
09 21.05 С 4 20 км 9/8 600 м
[Cb calv Ci fib]
+18.1 +4.3 40 +18 +20 по сезону 1009.8 990.0
12 21.05 С 4 20 км 10/8 600 м
[Cb calv Ci fib]
+20.2 +2.1 30 +21 +22 комфорт 1009.3 989.6
15 21.05 С 2 20 км 10/8 600 м
[Cb calv Ac trans]
+20.0 +4.5 36 +21 +21 комфорт 1008.7 989.0
18 21.05 С 3 10 км ливневой дождь 10/10 600 м
[Cb cap]
+14.2 +10.6 79 +13 +13 холодно 1010.4 990.3 +21.2 1
21 21.05 СЗ 3 20 км {ливн. осадки} 10/5 600 м
[Cb calv Ac As]
+14.6 +10.6 77 +14 +14 по сезону 1009.0 989.0
00 22.05 С 4 10 км ливневой дождь 10/10 600 м
[Cb calv]
+14.6 +11.2 80 +13 +13 по сезону 1008.4 988.4
03 22.05 С 4 10 км {ливн. осадки} 8/5 600 м
[Cb calv Ac trans]
+13.9 +12.5 91 +12 +12 прохладно 1008.5 988.5
06 22.05 С 2 20 км {ливн. осадки} 10/10 600 м
[Cb calv]
+15.5 +13.2 86 +15 +15 по сезону 1009.4 989.5 +13.8 1
09 22.05 С 5 20 км 10/10 600 м
[Cb calv]
+17.2 +12.5 74 +17 +17 по сезону 1010.3 990.4
12 22.05 С 4 20 км слабый ливневой дождь 9/9 600 м
[Cb calv]
+17.5 +11.1 66 +17 +18 холодно 1011.4 991.5
15 22.05 СВ 3 20 км {ливн. осадки} 8/5 600 м
[Cu med, cong Ci fib]
+19.6 +4.9 38 +20 +22 по сезону 1012.0 992.2
18 22.05 С 2 20 км {ливн. осадки} 3/0
[Ci fib]
+17.3 +0.9 33 +18 +18 по сезону 1013.7 993.7 +20.1 0.0
21 22.05 С 2 20 км ясно +14.0 +2.6 46 +14 +14 по сезону 1015.3 995.1
00 23.05 С 3 20 км 3/0
[Ci fib]
+13.4 +2.3 47 +12 +12 по сезону 1015.9 995.6
03 23.05 С 1 20 км 3/0
[Ci fib]
+12.6 +2.2 49 +13 +13 по сезону 1016.3 996.0
06 23.05 С 2 20 км ясно +16.8 +4.5 44 +17 +24 по сезону 1017.3 997.2 +11.0
09 23.05 С 2 20 км 6/6 600 м
[Cu hum]
+20.8 +3.1 31 +22 +29 комфорт 1017.3 997.5
12 23.05 СЗ 1 20 км 8/8 600 м
[Cu hum]
+22.4 +3.0 28 +22 +26 комфорт 1016.7 997.0
15 23.05 ЮВ 2 20 км 5/5 600 м
[Cu hum]
+21.9 +3.1 29 +22 +24 комфорт 1015.6 995.9
18 23.05 ЮВ 2 20 км 1/0
[Ci fib]
+18.8 +4.2 38 +20 +20 тепло 1016.3 996.4 +23.1
21 23.05 ЮЗ 2 20 км ясно +14.2 +7.3 63 +14 +14 по сезону 1017.7 997.5
00 24.05 ЮЗ 2 20 км ясно +12.9 +7.4 69 +12 +12 по сезону 1017.4 997.1
03 24.05 Ю 1 20 км 3/0
[Ci fib]
+11.4 +7.1 75 +11 +12 прохладно 1017.1 996.7
06 24.05 Ю 3 50 км 1/0
[Ci fib]
+16.2 +7.9 58 +16 +22 по сезону 1017.1 997.0 +11.3
09 24.05 Ю 5 50 км 1/0
[Ci fib]
+21.6 +6.7 38 +22 +31 комфорт 1016.4 996.7
12 24.05 Ю 5 50 км 6/4 600 м
[Cu hum Ci fib]
+23.0 +5.0 31 +23 +28 комфорт 1014.8 995.2
15 24.05 Ю 4 50 км 3/0
[Ci fib]
+21.7 +4.7 33 +22 +25 комфорт 1013.9 994.2

 

Местоположение метеостанции Кишинев (Молдова): широта 47.02 долгота 28.98 высота над уровнем моря 173 м.

В архиве по умолчанию представлена погода в Кишиневе за последнюю неделю. Архивные данные за месяц целиком и за предыдущие месяцы, начиная с января 2011 года, Вы можете получить, выбрав интересующий диапазон дат из раскрывающегося списка и нажав кнопку "Ввод!".

Внимание! Время в таблицах - всемирное. Для получения местного времени необходимо прибавить поправку, которая в Кишиневе равна 2 ч.

Смотрите также архив погоды в соседних городах и на ближайших метеорологических станциях:

Погода в Дубоссарах (Молдова) (29 км)
Погода в Тирасполе (Молдова) (49 км)
Погода в Бравичах (Молдова) (57 км)
Погода в Штефан Водэ (Молдова) (67 км)
Погода в Корнестах (Молдова) (76 км)
Погода в Затишье (Одесская область, Украина) (76 км)
Погода в Леове (Молдова) (80 км)
Погода в Заставе (Одесская область, Украина) (81 км)
Погода в Рыбнице (Молдова) (83 км)
Погода в Комрате (Молдова) (84 км)

Пояснения к столбцам:

Ветер - указаны скорость ветра в м/с - средняя за 10 мин, порывы в срок и между сроками (в фигурных скобках) и направление, откуда дует ветер: С - северный, СВ - северо-восточный, В - восточный, ЮВ - юго-восточный, Ю - южный, ЮЗ - юго-западный, З - западный, СЗ - северо-западный.
Видимость - горизонтальная дальность видимости в метрах или километрах. При видимости от 1 до 10 км при отсутствии осадков обычно наблюдается дымка, при ухудшении видимости до 1 км и менее - туман. В сухую погоду видимость может ухудшаться дымом, пылью или мглою.
Явления - указаны атмосферные явления, наблюдавшиеся в срок или в последний час перед сроком; фигурными скобками обозначены явления, наблюдавшиеся между сроками (за 1-3 часа до срока); квадратными скобками обозначены град или гололедные отложения с указанием их диаметра в мм.
Облачность - указаны через наклонную черту общая и нижняя облачность в баллах и высота нижней границы облаков в метрах; квадратными скобками обозначены формы облаков: Ci - перистые, Cs - перисто-слоистые, Cc - перисто-кучевые, Ac - высококучевые, As - высокослоистые, Sc - слоисто-кучевые, Ns - слоисто-дождевые, Cu - кучевые, Cb - кучево-дождевые. Подробнее классификацию облаков см. в Атласе облаков (PDF).
T - Температура воздуха - температура, измеренная на высоте 2 м над землей.
Td - Температура точки росы - температура, при понижении до которой содержащийся в воздухе водяной пар достигнет насыщения.
f - Относительная влажность воздуха - влажноcть воздуха, измеренная на высоте 2 м над землей.
Te - Эффективная температура - температура, которую ощущает одетый по сезону человек в тени. Характеристика душности погоды. При расчете учитывается влияние влажности воздуха и скорости ветра на теплоощущения человека.
Tes - Эффективная температура на солнце - температура, которую ощущает человек, с поправкой на солнечный нагрев. Характеристика знойности погоды. Зависит от высоты солнца над горизонтом, облачности и скорости ветра. Ночью, в пасмурную погоду, а также при ветре 12 м/с и более поправка равна нулю.
P - Атмосферное давление - приведенное к уровню моря атмосферное давление.
Po - Атмосферное давление - измеренное на уровне метеостанции атмосферное давление.
Tmin - Минимальная температура - минимум температуры воздуха на высоте 2 м над землей.
Tmax - Максимальная температура - максимум температуры воздуха на высоте 2 м над землей.
R - Количество осадков - Количество выпавших осадков за период времени, мм. При наведении курсора мыши на число - период времени, за который выпало указанное количество осадков.
R24 - Количество осадков - Количество выпавших осадков за 24 часа, мм.
S - Снежный покров - Высота снежного покрова, см. При наведении курсора мыши на число - состояние снежного покрова и степень покрытия местности в баллах.